This demonstration page uses our WeatherBlox Daily Observations layout. Learn more.

Hourly Observations for March 2, 2015

Temp ( °F °C ) Dew Point ( °F °C ) Humidity (%) Winds ( mph kmh ) Pressure ( in mb ) Visibility ( mi km ) Precip ( " mm )
12:15 am 00:15 Clear 24 -4.2 11 -11.7 56 56 Calm 30.56 1035 10 16.0934 0 0
12:35 am 00:35 Clear 26 -3.5 12 -11.1 56 56 E 3 6 30.56 1035 10 16.0934 0 0
12:55 am 00:55 Clear 26 -3.4 11 -11.5 54 54 E 7 11 30.56 1035 10 16.0934 0 0
1:15 am 01:15 Clear 28 -2.4 12 -11 52 52 E 7 11 30.5 1033 10 16.0934 0 0
1:35 am 01:35 Mostly Cloudy 28 -2 13 -10.6 52 52 E 7 11 30.5 1033 10 16.0934 0 0
1:55 am 01:55 Partly Cloudy 27 -3 12 -11.1 54 54 E 6 9 30.5 1033 10 16.0934 0 0
2:15 am 02:15 Mostly Cloudy 28 -2.3 13 -10.5 54 54 E 7 11 30.5 1033 10 16.0934 0 0
2:35 am 02:35 Cloudy 28 -2.5 13 -10.3 55 55 E 6 9 30.5 1033 10 16.0934 0 0
2:55 am 02:55 Cloudy 28 -2 14 -10.1 54 54 ESE 6 9 30.48 1032 10 16.0934 0 0
3:15 am 03:15 Cloudy 28 -2 14 -10 55 55 ESE 6 9 30.48 1032 10 16.0934 0 0
3:35 am 03:35 Cloudy 28 -2 15 -9.7 56 56 SE 6 9 30.48 1032 10 16.0934 0 0
3:55 am 03:55 Cloudy 28 -2 15 -9.5 57 57 SE 6 9 30.45 1031 10 16.0934 0 0
4:15 am 04:15 Cloudy 28 -2 15 -9.3 58 58 SE 6 9 30.45 1031 10 16.0934 0 0
4:35 am 04:35 Cloudy 28 -2 16 -9.1 59 59 SE 7 11 30.45 1031 10 16.0934 0 0
4:55 am 04:55 Cloudy 29 -1.7 16 -8.7 59 59 SE 7 11 30.45 1031 10 16.0934 0 0
5:15 am 05:15 Cloudy 29 -1.6 17 -8.5 60 60 SE 3 6 30.45 1031 10 16.0934 0 0
5:35 am 05:35 Cloudy 29 -1.6 17 -8.3 61 61 SE 6 9 30.45 1031 10 16.0934 0 0
5:55 am 05:55 Cloudy 29 -1.6 18 -8 62 62 SE 3 6 30.45 1031 10 16.0934 0 0
6:15 am 06:15 Cloudy 29 -1.6 18 -7.6 64 64 SSE 5 7 30.45 1031 10 16.0934 0 0
6:35 am 06:35 Cloudy 29 -1.5 19 -7.3 65 65 SSE 5 7 30.45 1031 10 16.0934 0 0
6:55 am 06:55 Cloudy 29 -1.4 19 -7 66 66 S 12 19 30.45 1031 10 16.0934 0 0
7:15 am 07:15 Cloudy 29 -1.8 21 -6 73 73 S 12 19 30.45 1031 10 16.0934 0 0
7:35 am 07:35 Cloudy 28 -2 23 -4.8 81 81 S 10 17 30.45 1031 10 16.0934 0 0
7:55 am 07:55 Cloudy 28 -2 24 -4.5 83 83 S 10 17 30.45 1031 10 16.0934 0 0
8:15 am 08:15 Cloudy 29 -1.6 24 -4.5 81 81 S 13 20 30.45 1031 10 16.0934 0 0
8:35 am 08:35 Mostly Cloudy 29 -1.5 23 -4.8 78 78 S 16 26 30.45 1031 10 16.0934 0 0
8:55 am 08:55 Partly Cloudy 30 -1.2 23 -5.2 75 75 S 16 26 30.42 1030 10 16.0934 0 0
9:15 am 09:15 Sunny 30 -1 22 -5.7 71 71 S 14 22 30.42 1030 10 16.0934 0 0
9:35 am 09:35 Sunny 32 -0.1 21 -6.2 64 64 S 17 28 30.39 1029 10 16.0934 0 0
9:55 am 09:55 Sunny 32 0 19 -7.5 57 57 S 21 33 30.36 1028 10 16.0934 0 0
10:15 am 10:15 Partly Cloudy 33 0.4 18 -7.7 55 55 SSE 24 39 30.36 1028 10 16.0934 0 0
10:35 am 10:35 Mostly Cloudy 33 0.3 16 -9 50 50 S 22 35 30.33 1027 10 16.0934 0 0
10:55 am 10:55 Cloudy 33 0.5 17 -8.6 51 51 S 22 35 30.33 1027 10 16.0934 0 0
11:15 am 11:15 Cloudy 34 0.9 16 -9 48 48 SSE 28 44 30.33 1027 10 16.0934 0 0
11:35 am 11:35 Cloudy 34 1.3 16 -8.9 47 47 S 18 30 30.33 1027 10 16.0934 0 0
11:55 am 11:55 Cloudy 35 1.5 15 -9.7 44 44 S 22 35 30.3 1026 10 16.0934 0 0
12:15 pm 12:15 Cloudy 36 2.4 14 -9.8 40 40 S 29 46 30.27 1025 10 16.0934 0 0
12:35 pm 12:35 Cloudy 36 2.3 14 -10.2 40 40 S 28 44 30.24 1024 10 16.0934 0 0
1:15 pm 13:15 Cloudy 37 2.7 13 -10.3 38 38 S 23 37 30.21 1023 10 16.0934 0 0
1:35 pm 13:35 Cloudy 37 2.9 12 -10.9 36 36 S 29 46 30.21 1023 10 16.0934 0 0
1:55 pm 13:55 Mostly Cloudy 38 3.2 12 -10.9 35 35 SSE 29 46 30.18 1022 10 16.0934 0 0
2:15 pm 14:15 Partly Cloudy 37 2.6 13 -10.3 38 38 SSE 31 50 30.15 1021 10 16.0934 0 0
2:35 pm 14:35 Sunny 37 2.7 14 -9.9 39 39 S 30 48 30.15 1021 10 16.0934 0 0
2:55 pm 14:55 Sunny 37 2.7 15 -9.4 41 41 S 23 37 30.09 1019 10 16.0934 0 0
3:15 pm 15:15 Sunny 36 2.2 16 -9 44 44 S 25 41 30.12 1020 10 16.0934 0 0
3:35 pm 15:35 Sunny 36 2.1 16 -9 44 44 SSE 24 39 30.09 1019 10 16.0934 0 0
3:55 pm 15:55 Sunny 36 2.3 17 -8.6 45 45 S 25 41 30.09 1019 10 16.0934 0 0
4:15 pm 16:15 Sunny 35 1.9 17 -8.6 46 46 S 26 43 30.09 1019 10 16.0934 0 0
4:35 pm 16:35 Sunny 35 1.5 17 -8.5 48 48 S 20 31 30.09 1019 10 16.0934 0 0
4:55 pm 16:55 Sunny 34 1.2 17 -8.5 49 49 S 23 37 30.06 1018 10 16.0934 0 0
5:15 pm 17:15 Partly Cloudy 34 1 17 -8.5 50 50 S 22 35 30.06 1018 10 16.0934 0 0
5:35 pm 17:35 Partly Cloudy 33 0.5 17 -8.5 51 51 S 24 39 30.03 1017 10 16.0934 0 0
5:55 pm 17:55 Sunny 33 0.3 17 -8.3 53 53 S 18 30 30.03 1017 10 16.0934 0 0
6:15 pm 18:15 Partly Cloudy 32 0 17 -8.3 54 54 S 16 26 30.03 1017 10 16.0934 0 0
6:35 pm 18:35 Mostly Cloudy 32 0 17 -8.5 53 53 S 14 22 30 1016 10 16.0934 0 0
6:55 pm 18:55 Cloudy 31 -0.5 17 -8.6 55 55 S 13 20 30 1016 10 16.0934 0 0
7:15 pm 19:15 Cloudy 31 -0.7 16 -8.9 54 54 SSE 13 20 30 1016 10 16.0934 0 0
7:35 pm 19:35 Cloudy 31 -0.8 16 -9.1 54 54 SSE 12 19 29.97 1015 10 16.0934 0 0
7:55 pm 19:55 Cloudy 30 -1 16 -9 55 55 SSE 13 20 29.97 1015 10 16.0934 0 0
8:15 pm 20:15 Cloudy 30 -1.1 16 -9 55 55 SSE 13 20 29.97 1015 10 16.0934 0 0
8:35 pm 20:35 Cloudy 30 -1.2 16 -8.7 57 57 SSE 16 26 29.94 1014 10 16.0934 0 0
8:55 pm 20:55 Cloudy 30 -1.2 17 -8.5 58 58 SSE 16 26 29.91 1013 10 16.0934 0 0
9:15 pm 21:15 Cloudy 30 -1.3 17 -8.2 60 60 SSE 18 30 29.91 1013 10 16.0934 0 0
9:35 pm 21:35 Cloudy 29 -1.5 18 -8 62 62 SSE 17 28 29.88 1012 10 16.0934 0 0
9:55 pm 21:55 Cloudy 29 -1.5 18 -7.7 63 63 SSE 16 26 29.88 1012 10 16.0934 0 0
10:15 pm 22:15 Cloudy 29 -1.7 18 -7.6 64 64 SSE 16 26 29.88 1012 10 16.0934 0 0
10:35 pm 22:35 Cloudy 29 -1.7 19 -7.3 66 66 SSE 13 20 29.88 1012 10 16.0934 0 0
10:55 pm 22:55 Cloudy 29 -1.8 19 -7.1 67 67 SSE 16 26 29.85 1011 10 16.0934 0 0
11:15 pm 23:15 Cloudy 28 -2 19 -7 69 69 SSE 16 26 29.85 1011 10 16.0934 0 0
11:35 pm 23:35 Cloudy 28 -2 20 -6.6 71 71 SSE 18 30 29.83 1010 10 16.0934 0 0
11:55 pm 23:55 Cloudy 28 -2.1 20 -6.5 72 72 SSE 18 30 29.83 1010 10 16.0934 0 0

Powered by AerisWeather